This is the latest recevied weather packets stored in our database for station/object KO4APQ. If no packets are shown the sender has not sent any weather packets the latest 10 day(s).
| Time | Temp. | Humidity | Pressure | Rain* | Wind** | Luminosity | Snow |
|---|---|---|---|---|---|---|---|
| 1777463924 | 16.67° C | 96% | 1015.1 hPa | 0 mm | - | 145 W/m² | - |
| 1777463621 | 16.67° C | 96% | 1014.9 hPa | 0 mm | - | 114 W/m² | - |
| 1777463321 | 16.67° C | 96% | 1014.8 hPa | 0 mm | - | 96 W/m² | - |
| 1777463018 | 16.67° C | 96% | 1014.8 hPa | 0 mm | - | 74 W/m² | - |
| 1777462713 | 16.67° C | 96% | 1014.6 hPa | 0 mm | - | 61 W/m² | - |
| 1777462408 | 16.67° C | 96% | 1014.4 hPa | 0 mm | - | 55 W/m² | - |
| 1777462105 | 16.67° C | 96% | 1014.2 hPa | 0 mm | - | 35 W/m² | - |
| 1777461802 | 16.67° C | 96% | 1014.3 hPa | 0 mm | - | 28 W/m² | - |
| 1777461498 | 16.67° C | 96% | 1014.4 hPa | 0 mm | - | 21 W/m² | - |
| 1777461194 | 16.67° C | 96% | 1014.7 hPa | 0 mm | - | 12 W/m² | - |
| 1777460889 | 16.67° C | 96% | 1014.4 hPa | 0 mm | - | 8 W/m² | - |
| 1777460585 | 16.67° C | 95% | 1014.6 hPa | 0 mm | - | 7 W/m² | - |
| 1777460281 | 16.67° C | 95% | 1014.5 hPa | 0 mm | - | 5 W/m² | - |
| 1777459978 | 16.67° C | 95% | 1014.5 hPa | 0 mm | - | 3 W/m² | - |
| 1777459675 | 16.67° C | 95% | 1015 hPa | 0 mm | - | 2 W/m² | - |
| 1777459371 | 16.67° C | 95% | 1014.7 hPa | 0 mm | - | 1 W/m² | - |
| 1777459070 | 16.67° C | 95% | 1014.8 hPa | 0 mm | - | 0 W/m² | - |
| 1777458767 | 16.67° C | 95% | 1014.8 hPa | 1.27 mm | - | 0 W/m² | - |
| 1777458463 | 16.67° C | 95% | 1014.5 hPa | 0 mm | - | 0 W/m² | - |
| 1777458160 | 16.67° C | 95% | 1014.7 hPa | 0 mm | - | 0 W/m² | - |
| 1777457855 | 16.67° C | 95% | 1014.9 hPa | 0 mm | - | 0 W/m² | - |
| 1777457550 | 16.67° C | 95% | 1015.1 hPa | 1.78 mm | - | 0 W/m² | - |
| 1777457246 | 16.67° C | 95% | 1015.2 hPa | 1.78 mm | - | 0 W/m² | - |
| 1777456942 | 16.67° C | 94% | 1015.6 hPa | 0 mm | - | 0 W/m² | - |
| 1777456637 | 16.67° C | 94% | 1015.5 hPa | 0 mm | - | 0 W/m² | - |
* Rain latest hour (hover to see other rain measurements)
** Current wind speed in m/s (hover to see current wind gust speed)